Location: Bucquoy
(50.1391°N, 2.7097°E)
Time: 07:31:46
(UTC+00:00)

DELTA 2 DEB (DPAF) - Pass Details

Date: 06 May 2021
Orbit: 639 x 645 km, 98.4° (Epoch: 21 June)

Event Time Altitude Azimuth Distance (km) Brightness Sun altitude
Exits shadow 02:21:36 18° 182° (S) 1,558 5.6 -15.0°
Maximum altitude 02:24:46 60° 258° (WSW) 741 4.2 -14.7°
Drops below altitude 10° 02:29:12 10° 339° (NNW) 2,057 7.1 -14.2°
Sets 02:31:28 0° 343° (NNW) 2,973 8.0 -14.0°
